Dewpoint
70 72 72 71 71 72 70 70 70 71 72 72 73 72 72 71 73 75 75 73 72 72 71 72 71 74 75 71 69 68 66 66 64 65 67 71 74 74 73 73 73 73 70
70 72 71 72 72 71 70 70 70 71 73 73 72 71 72 72 72 73 72 69 72 71 71 71 72 69 74 74 74 76 77 72 69 73 74 77 73 74 74 73 72 70 70
70 70 70 71 71 71 70 71 71 72 73 72 73 73 73 73 72 73 72 72 71 70 70 70 70 70 71 69 74 70 69 70 77 72 67 75 71 72 72 73 72 72 69
70 70 71 72 72 73 72 74 72 73 73 73 73 73 73 72 72 71 71 72 72 70 70 70 72 72 72 72 73 74 76 71 72 71 71 75 74 71 70 69 69 70 69
72 72 72 73 74 74 73 75 73 73 72 73 74 73 73 72 69 72 71 71 72 72 72 72 72 72 71 71 73 73 76 74 74 69 67 75 70 70 69 69 68 68 69
73 73 74 74 74 74 74 74 74 74 73 74 73 73 73 69 66 67 70 71 72 73 73 73 73 72 72 69 69 69 71 74 74 68 66 66 75 73 74 69 69 67 65
74 74 74 75 75 75 75 74 74 74 74 74 74 74 73 73 67 67 68 72 72 73 74 73 72 68 70 71 69 68 68 67 68 73 72 71 73 74 77 73 73 69 68
74 74 74 75 74 75 75 75 75 74 74 74 74 74 74 73 64 65 67 73 73 74 73 73 73 73 73 73 73 72 72 71 72 71 72 72 72 75 76 76 76 74 71
73 74 74 75 74 74 74 74 74 74 74 74 75 75 75 73 60 59 64 70 70 71 71 71 71 71 67 65 70 70 71 70 66 65 66 66 66 65 69 77 74 72 69
73 74 75 75 75 74 74 75 75 75 74 72 74 75 70 70 57 57 60 62 64 61 63 65 62 63 59 58 65 66 66 66 67 68 70 70 68 71 66 72 73 70 69
72 74 75 75 75 75 76 75 75 75 74 75 74 73 72 70 62 56 55 63 58 56 56 56 57 57 55 55 55 60 63 65 67 67 68 66 67 70 71 72 72 74 71
73 72 74 75 73 73 75 75 75 75 74 73 72 68 66 65 60 56 55 56 58 60 59 58 60 54 53 53 55 57 57 59 62 64 66 67 67 71 72 72 73 74 75
70 73 74 74 74 75 75 75 72 74 71 70 68 65 62 62 60 55 55 56 56 57 59 57 55 53 53 55 55 56 56 62 64 65 66 67 71 71 72 73 73 74 74
70 72 73 74 73 74 72 72 71 70 68 66 64 61 59 58 58 58 59 58 57 57 59 59 58 56 55 57 58 63 64 64 65 66 67 68 72 71 72 74 71 70 70
70 71 70 68 68 67 66 70 68 69 64 63 60 58 56 56 55 54 54 57 56 54 54 60 60 60 60 60 62 64 65 68 68 69 67 68 67 68 71 73 72 71 68
68 70 68 67 66 64 65 64 54 54 51 51 52 56 56 51 50 48 47 45 45 46 56 58 58 59 59 60 59 60 62 61 63 63 66 67 66 66 66 70 71 70 67
68 67 65 63 62 63 63 60 57 56 50 48 48 47 46 50 47 45 45 44 45 47 55 53 57 58 59 60 60 59 59 60 62 63 63 63 64 65 66 68 68 68 66
65 60 64 63 63 61 61 59 58 57 55 54 48 49 45 45 44 43 43 45 56 53 53 52 53 56 58 58 60 60 60 61 61 62 62 61 62 63 63 63 63 64 65
63 63 63 62 64 61 60 59 58 59 57 54 56 50 48 44 43 43 44 56 54 53 54 54 55 53 56 59 59 61 62 61 61 61 61 61 62 62 62 63 63 56 57
62 60 60 62 62 62 60 59 59 58 56 55 53 53 55 53 54 54 55 56 54 53 54 55 56 56 57 58 60 59 59 59 60 60 61 61 62 61 60 61 61 60 60
59 60 61 61 61 61 60 59 58 57 56 55 54 54 52 54 51 51 52 53 53 52 55 56 57 57 56 56 54 55 55 56 57 57 57 58 59 58 58 57 58 58 58
59 59 61 60 61 61 59 59 58 57 56 55 55 57 51 58 53 52 53 52 52 54 53 57 55 55 54 54 53 52 52 51 52 53 52 52 53 53 55 56 57 57 56
58 59 64 61 61 59 59 60 61 60 56 56 54 55 57 56 54 53 53 52 52 53 54 55 55 54 56 57 57 56 54 52 53 54 53 52 50 50 50 48 48 52 56
59 59 62 62 60 60 59 60 66 59 57 55 52 52 53 52 52 52 51 51 51 53 53 54 54 55 57 58 58 56 57 57 56 55 57 55 53 51 50 50 49 50 49
60 63 63 59 58 58 60 64 60 58 55 54 53 52 50 49 47 48 49 51 52 53 53 55 56 57 59 61 59 56 42 33 53 45 57 57 57 58 55 53 51 50 51
63 64 65 65 65 64 64 60 59 57 53 52 51 50 50 49 50 52 54 56 56 56 56 56 56 56 54 51 45 38 33 32 42 34 54 58 57 57 56 57 56 55 54
Lifted_Index
-6 -6 -6 -6 -6 -5 -5 -4 -4 -4 -4 -5 -5 -5 -5 -5 -5 -6 -6 -6 -5 -5 -5 -5 -5 -5 -5 -5 -5 -5 -5 -4 -4 -4 -5 -5 -6 -6 -5 -5 -5 -4 -4
-6 -6 -6 -6 -6 -5 -5 -4 -4 -4 -5 -5 -5 -5 -5 -5 -5 -5 -5 -5 -5 -5 -5 -5 -5 -5 -5 -5 -5 -5 -5 -5 -4 -5 -5 -5 -5 -5 -5 -5 -4 -4 -4
-6 -6 -7 -6 -6 -6 -5 -5 -5 -5 -5 -5 -5 -5 -5 -5 -5 -5 -5 -5 -5 -5 -4 -4 -4 -5 -5 -5 -5 -5 -5 -5 -5 -5 -5 -5 -5 -5 -4 -4 -4 -3 -3
-6 -6 -6 -6 -6 -6 -6 -6 -5 -5 -5 -5 -5 -5 -5 -5 -5 -5 -5 -5 -5 -4 -4 -4 -5 -5 -5 -5 -5 -5 -5 -5 -5 -5 -5 -5 -5 -4 -4 -3 -3 -3 -3
-7 -7 -7 -6 -6 -6 -6 -6 -6 -6 -6 -6 -6 -5 -5 -5 -4 -4 -4 -4 -5 -5 -5 -5 -5 -5 -5 -5 -5 -5 -5 -5 -5 -4 -4 -4 -5 -4 -4 -3 -3 -3 -3
-7 -7 -7 -7 -7 -6 -6 -6 -6 -6 -6 -6 -6 -5 -5 -5 -4 -4 -4 -4 -5 -5 -5 -6 -6 -5 -5 -5 -4 -4 -4 -4 -4 -4 -4 -4 -4 -5 -5 -4 -4 -3 -3
-8 -8 -7 -7 -7 -7 -7 -6 -6 -6 -6 -6 -6 -6 -6 -6 -5 -4 -4 -5 -5 -6 -6 -6 -5 -5 -5 -5 -4 -4 -4 -4 -4 -4 -4 -4 -5 -5 -5 -5 -5 -4 -4
-8 -8 -8 -7 -7 -7 -7 -7 -7 -6 -6 -6 -6 -6 -7 -6 -6 -5 -4 -5 -5 -5 -5 -5 -5 -5 -4 -4 -4 -4 -4 -4 -4 -4 -4 -4 -4 -5 -5 -5 -5 -5 -4
-9 -9 -8 -8 -7 -7 -7 -7 -7 -7 -7 -7 -7 -7 -8 -7 -6 -5 -4 -4 -4 -4 -4 -3 -3 -2 -2 -2 -2 -2 -3 -3 -3 -3 -3 -4 -4 -4 -5 -5 -5 -5 -5
-9 -9 -9 -9 -8 -8 -7 -7 -7 -7 -7 -7 -8 -8 -7 -7 -5 -5 -4 -3 -2 -2 -1 0 1 1 2 2 2 1 0 -0 -1 -2 -2 -3 -3 -4 -4 -4 -4 -4 -4
-9 -9 -9 -9 -9 -9 -8 -8 -8 -8 -8 -7 -7 -6 -5 -5 -4 -4 -3 -1 0 1 2 3 3 4 4 5 5 4 3 2 1 0 -1 -2 -3 -3 -4 -4 -4 -4 -4
-9 -9 -9 -9 -9 -9 -9 -9 -8 -8 -7 -7 -6 -4 -3 -3 -3 -2 0 2 4 4 4 4 4 4 4 4 5 5 5 4 3 2 0 -1 -2 -3 -4 -4 -4 -4 -4
-8 -9 -9 -9 -9 -9 -9 -9 -8 -8 -7 -6 -4 -3 -3 -2 -1 1 3 5 6 5 4 4 4 4 4 4 4 5 5 4 3 2 1 -1 -2 -3 -3 -4 -4 -4 -4
-8 -8 -9 -9 -8 -8 -8 -8 -7 -6 -6 -5 -4 -3 -2 -1 1 3 4 6 6 6 5 4 4 4 4 4 4 4 4 4 3 2 1 -0 -1 -2 -3 -3 -4 -3 -3
-7 -8 -8 -8 -7 -6 -6 -6 -6 -5 -5 -4 -3 -2 -0 1 3 4 5 6 7 6 5 5 4 4 5 4 4 4 4 3 3 2 1 0 -0 -1 -2 -3 -3 -3 -2
-6 -7 -7 -6 -5 -5 -4 -4 -4 -4 -3 -2 -1 0 2 3 4 5 6 7 7 7 6 5 5 5 5 5 4 4 3 3 3 2 2 1 0 -0 -1 -2 -3 -3 -2
-5 -5 -5 -4 -4 -3 -3 -3 -3 -3 -1 0 2 3 4 5 6 7 7 7 7 6 6 6 5 5 5 5 5 4 4 4 3 3 2 2 1 1 -0 -1 -2 -2 -1
-4 -4 -4 -3 -3 -2 -1 -1 -1 -1 0 2 4 5 5 6 7 7 7 6 6 5 6 6 6 5 5 5 4 4 4 4 4 4 3 2 2 1 1 0 0 -0 -0
-2 -2 -2 -2 -2 -1 -1 -0 0 1 1 2 4 5 5 6 7 7 6 6 5 5 5 5 5 5 4 4 3 3 4 4 4 4 4 3 3 2 2 2 1 1 1
-2 -1 -1 -1 -1 -1 -0 0 1 1 2 2 3 4 4 5 5 5 5 5 4 5 5 4 4 4 4 4 3 3 3 4 4 4 4 4 3 3 3 3 3 2 2
-1 -1 -1 -1 -1 0 0 1 1 1 2 2 2 2 3 3 4 4 4 4 4 4 4 4 4 4 4 4 4 4 3 4 4 4 4 4 4 4 3 3 3 3 3
-1 -1 -1 -1 -0 1 1 1 1 1 1 1 1 1 2 2 3 3 3 4 4 4 4 3 3 3 4 4 4 4 4 4 4 4 4 4 4 4 4 4 4 4 3
-2 -1 -1 -1 0 1 2 1 1 1 0 0 1 1 1 2 2 2 3 3 4 4 3 3 3 3 3 3 3 3 4 4 4 4 4 4 5 5 5 4 4 4 4
-2 -2 -2 -1 1 1 1 1 -0 -0 -0 0 1 1 2 2 2 2 3 3 3 3 3 2 2 2 2 2 2 3 3 3 4 4 4 4 4 4 4 4 5 4 4
-4 -3 -2 -1 -0 -0 -0 -1 -1 -1 -0 0 1 2 2 3 3 3 3 3 3 3 2 2 2 2 2 2 3 3 3 3 4 4 4 3 3 3 3 3 4 4 4
-4 -4 -3 -2 -2 -1 -1 -2 -2 -1 -0 1 1 2 2 2 3 2 2 2 2 2 2 3 3 3 3 3 4 4 4 4 4 4 4 3 3 2 2 3 3 3 3